Biedriem

Komanda piedalās

VSK Noskrien twitter
VSK Noskrien Facebook profils

Polar M400 HR
Ūdensizturīgs GPS pulsometrs ikdienas treniņiem un sportiskiem sasniegumiem.
EUR 189.00

Noskrietais


Pēdējās nedēļas skrējieni grupai
Datums Notikums Skrējējs Km Laiks Pulss min/km km/h Apavi
21/11/18 pasts un riņķītis .Linda 6.59 41:15 134 06:15 9.59 ir
21/11/18 skrējiens suns 6.00 39:00 06:30 9.23 ir
21/11/18 treadmill DServ 11.10 57:04 05:08 11.67 ir
21/11/18 Mārupīte mazais pusdienlaiks gasha 5.00 29:15 05:51 10.26 ir
21/11/18 Istria 100 - 15 katarakt 5.00 31:04 06:12 9.66 ir
21/11/18 Pa Salaspili Aivars 4.97 39:00 99 07:50 7.65 ir
21/11/18 Paskrējiens Ize_De 10.69 1:13:16 06:51 8.75 ir
21/11/18 12.00.Sprinti pa veloceliņu MAKRO 11.00 57:16 132 05:12 11.53 ir
21/11/18 rīta rosme stjopachio 5.11 25:57 118 05:04 11.82 ir
21/11/18 Grīziņkalns augšā lejā Ainars 15.00 1:07:30 04:30 13.33 ir
21/11/18 Skrējiens Chuncha 12.00 1:05:40 05:28 10.96 ir
21/11/18 Intervāli, +1° Alarion 5.23 45:08 140 08:37 6.95 ir
21/11/18 #231.6.3.+ JurBer 4.52 30:02 133 06:38 9.03 ir
21/11/18 Skrējiens. garaissss 10.45 56:02 144 05:21 11.19 ir
21/11/18 Ar Untisuni paskrējām. vitjka 6.45 39:00 06:02 9.92 ir
21/11/18 Skrējiens Ila_Kantī 5.00 27:59 05:35 10.72
21/11/18 Skrējiens zandarts 8.04 51:30 06:24 9.37 ir
21/11/18 Skrējiens Natthe 8.00 46:15 141 05:46 10.38 ir
21/11/18 Skrējiens frišais 5.92 33:06 05:35 10.73 ir
21/11/18 Skrējiens oskarsdamb 10.29 53:19 05:10 11.58 ir
21/11/18 skrējiens Gatis Krūze 11.00 1:02:30 05:40 10.56
21/11/18 no rīta -1*, 1918.g.pieņemts Igaunijas karogs JK 1.65 10:34 06:24 9.37 ir
21/11/18 Rīta pikols 10.29 1:08:56 06:41 8.96 ir
21/11/18 Rīgas komandējums. Day 2/3. KarlisBumans 9.50 52:20 05:30 10.89 ir
21/11/18 V Trakais 14.52 1:01:17 04:13 14.22 ir
21/11/18 M30 no rīta DK86 4.41 30:02 117 06:48 8.81
21/11/18 Te ir darbs! Raibacainais Ezītis 12.01 1:06:07 05:30 10.90 ir
21/11/18 Laterna, yes, atsildīšanās. (Pirmais no visiem!) Didzo 11.47 1:00:00 05:13 11.47 ir
20/11/18 Patīkams vēsumiņš un mūzika AngelLika21 12.33 1:11:11 160 05:46 10.39
20/11/18 Morning run with dog sundowner 2.70 13:20 04:56 12.15 ir
20/11/18 Skrējiens + 8x200m pasmagi sprinti + gara atsildīšanās James87 14.20 1:05:38 04:37 12.98 ir
20/11/18 Uz darbu modris_aa 14.30 1:41:29 07:05 8.45 ir
20/11/18 Kaut kas tajā ir Ultralapsa 9.01 55:00 136 06:06 9.83 ir
20/11/18 Razminka Tatjana1999 2.22 14:00 06:18 9.51
20/11/18 Fancy vetrasputns 8.00 49:57 139 06:14 9.61 ir
20/11/18 Dalbes puse VilnisV 4.70 34:17 133 07:17 8.23 ir
20/11/18 Noskriesimziemu15 Aikeris 7.47 49:28 150 06:37 9.06 ir
20/11/18 skrējiens no sporta zāles Gatis Krūze 2.00 11:32 05:46 10.40
20/11/18 skrējiens uz sporta zāli Gatis Krūze 2.41 13:33 05:37 10.67
20/11/18 No darbs ilZZuks 11.00 1:05:50 05:59 10.03
20/11/18 V Trakais 8.07 35:41 04:25 13.57 ir
20/11/18 Skrējiens ruducis 9.42 50:02 05:18 11.30 ir
20/11/18 Viduvējais Ugisdatavs 21.70 1:48:30 139 05:00 12.00 ir
20/11/18 Skrējiens cheburs 8.79 51:50 05:53 10.17 ir
20/11/18 Skrējiens Janxxx 4.07 30:02 07:22 8.13 ir
20/11/18 Skrējiens Ewiaa 8.02 45:21 05:39 10.61 ir
20/11/18 Skrējiens vaicis 10.26 1:00:24 05:53 10.19
20/11/18 Skrējiens anikka 5.14 37:36 07:18 8.20 ir
20/11/18 Skrējiens Lubyz 11.64 1:03:06 05:25 11.07 ir
20/11/18 Skrējiens Casperr 1.54 09:31 06:10 9.71 ir
20/11/18 Skrējiens Jurgis_Klav 4.00 28:14 07:03 8.50
20/11/18 Skrējiens ZZ88 11.33 1:01:35 05:26 11.04 ir
20/11/18 Skrējiens xorix 7.02 37:52 05:23 11.12 ir
20/11/18 Skrējiens Elhana 4.00 26:45 06:41 8.97 ir
20/11/18 Skrējiens IneJer 9.12 55:05 06:02 9.93
20/11/18 Skrējiens prieditism 5.84 40:02 06:51 8.75
20/11/18 Skrējiens Natthe 6.00 33:07 138 05:31 10.87 ir
20/11/18 Skrējiens Ločmele 3.07 24:57 08:07 7.38 ir
20/11/18 Skrējiens Ločmele 9.01 47:49 05:18 11.31 ir
20/11/18 Intervāliņi stadionā Cassandra 8.30 46:47 05:38 10.64 ir
20/11/18 vakars tumšs Rucavs 9.83 45:08 04:35 13.07 ir
20/11/18 plakanais Desperado 15.00 1:14:00 04:56 12.16 ir
20/11/18 Rīgas komandējums. Day 1/3. KarlisBumans 10.50 57:33 05:28 10.95 ir
20/11/18 Iesildīšanās skrejceliņš Špicka 2.25 14:30 06:26 9.31 ir
20/11/18 Vakara +1 A2 patiīkami lēns ziemīgs Aldis B 7.74 47:27 06:07 9.79 ir
20/11/18 Nāc izvējoties Liepājā Mošķis 6.08 42:46 07:02 8.53 ir
20/11/18 Krustpils 100. reize GU 3.42 21:34 06:18 9.51 ir
20/11/18 Skrienam kopà Ilze1409 14.14
20/11/18 rīta rosme stjopachio 4.92 24:18 121 04:56 12.15 ir
20/11/18 Gatavošanās vīrusu sezonai RobertsR 8.34 41:20 160 04:57 12.11 ir
20/11/18 Otrdienas atslodze Ginchaa 10.32 59:46 05:47 10.36
20/11/18 Otrdienis _Edgars_ 13.85 1:16:16 05:30 10.90 ir
20/11/18 Intervāla Treniņš Swimrunner 7.67 51:09 149 06:40 9.00 ir
20/11/18 no darba Rasels 11.80 1:06:55 133 05:40 10.58 ir
20/11/18 skrējiens guncha 9.00 42:38 129 04:44 12.67 ir
20/11/18 skrējiens Kahn 4.24 ir
20/11/18 skrējiens ģeda 8.94 56:30 142 06:19 9.49 ir
20/11/18 Veroties mazajās vizuļojošajās sniegpārsliņās anciite 5.33 33:09 06:13 9.65 ir
20/11/18 Vakars uldis15 17.50 1:30:32 05:10 11.60 ir
20/11/18 Vakara skrējiens JanisSkrien 13.00 1:10:43 148 05:26 11.03 ir
20/11/18 Mājup... Raibacainais Ezītis 11.14 58:57 05:17 11.34 ir
20/11/18 No tropiem uz poliem... gskunstins 9.40 53:15 145 05:39 10.59 ir
20/11/18 Paskrien GintsB 11.02 58:24 134 05:17 11.32 ir
20/11/18 Asfalts Dzo 12.70 57:30 04:31 13.25 ir
20/11/18 Otrdien Biruta 10.31 1:05:12 06:19 9.49 ir
20/11/18 Treniņš Dainis 13.12 1:23:34 06:22 9.42 ir
20/11/18 Parciņš. Rainers 10.05 57:35 05:43 10.47 ir
20/11/18 Skrējiens Jolis 20.20 1:49:39 05:25 11.05
20/11/18 pludmale teicamnieks 10.50 1:05:00 06:11 9.69 ir
20/11/18 Stadions tumsā IlzeP 5.70 38:46 06:48 8.82 ir
20/11/18 Rīts pūdercukurā! bantiite 8.55 51:01 05:58 10.06 ir
20/11/18 Iepazīstu Lisabonu OreMan 9.00 48:24 05:22 11.16 ir
20/11/18 Takas M.Po 10.02 1:00:24 118 06:01 9.95 ir
20/11/18 Līdz Zirņu ielai (-1°C; DR 2 m/s) atisx 9.00 56:49 156 06:18 9.50 ir
20/11/18 Treniņš andis.deze 9.09 39:19 165 04:19 13.87 ir
20/11/18 Olaine Naurītis 12.00 1:03:31 135 05:17 11.34 ir
20/11/18 s/c andris13 10.11 45:00 04:27 13.48 ir
20/11/18 skrēijens DServ 9.20 50:12 05:27 11.00 ir
20/11/18 Istria 100 - 14 katarakt 8.00 50:25 06:18 9.52 ir
20/11/18 Lidl aplis gintsp 5.13 31:30 06:08 9.77 ir
20/11/18 Gaisā pirmais sniegs. Didzo 11.45 1:04:20 05:37 10.68 ir
20/11/18 Biķernieku mežs izskriets Emons 14.00 1:23:43 05:58 10.03 ir
20/11/18 Pēc dežūras Shuma 11.40 1:07:26 140 05:54 10.14 ir
20/11/18 Skrējiens līdz Babītei un atpakaļ Dzintars 18.07 1:34:02 05:12 11.53 ir
20/11/18 Upe (96,1) Aivars 16.29 2:01:12 116 07:26 8.06 ir
20/11/18 rīts und 5.20 32:27 134 06:14 9.61 ir
20/11/18 līdz veikalam EdgarsBR 6.55 34:02 05:11 11.55 ir
20/11/18 2.Lat. vavere 5.51 47:48 145 08:40 6.92 ir
20/11/18 rita pikols 10.32 1:09:10 06:42 8.95 ir
20/11/18 Skrējiens johaidi 7.23 37:51 05:14 11.46 ir
20/11/18 no rīta -1*, 1858.g.dzimusi Selma Lāgerlēva JK 1.66 11:16 06:47 8.84 ir
20/11/18 Skrējiens zandarts 9.31 1:00:19 06:28 9.26 ir
20/11/18 Ziemas miegs. Nevaram pamosties. vitjka 6.53 35:42 05:28 10.97 ir
20/11/18 Skrējiens raraitis 12.70 59:19 04:40 12.85 ir
20/11/18 Skrējiens frišais 5.87 33:32 05:42 10.50 ir
20/11/18 Skrējiens Ila_Kantī 1.40 08:58 06:24 9.37
20/11/18 Skrējiens -3 C InTi68 12.12 1:13:24 141 06:03 9.91 ir
20/11/18 Labrīt, Itenā! SelfijuPavēlniece 6.70 42:58 168 06:24 9.36 ir
20/11/18 Louzan Trail v0.30 (Pēdējais Itenā) Džokers 13.00 59:06 04:32 13.20 ir
20/11/18 Skrējiens Chuncha 10.00 57:09 05:42 10.50 ir
20/11/18 Te ir darbs! Raibacainais Ezītis 11.88 1:06:11 05:34 10.77 ir
20/11/18 Skrējiens 19/11/2018 Spaidijs (Spidey) 8.84 1:18:35 08:53 6.75 ir
20/11/18 2019 zem 2:59:00 laacis1981 11.91 1:15:06 06:18 9.52 ir
20/11/18 Skrējiens Swimrunner 4.29 35:45 131 08:20 7.20 ir
20/11/18 Rīta riksis uldis15 9.90 49:49 05:01 11.92 ir
20/11/18 Ikdienas rīts ievajansone 4.22 29:53 134 07:04 8.47 ir
19/11/18 Pēc svētkiem AngelLika21 11.15 1:04:14 162 05:45 10.42
19/11/18 Skrējiens Ločmele 12.00 1:04:28 05:22 11.17 ir
19/11/18 Atkal Latvijā pragma 10.00 1:05:00 160 06:30 9.23
19/11/18 easy puuce 9.05 48:08 134 05:19 11.28 ir
19/11/18 Paskrien GintsB 5.18 29:57 117 05:46 10.38 ir
19/11/18 Pēc svētkiem Naurītis 14.07 1:12:32 137 05:09 11.64 ir
19/11/18 Baza - most Tatjana1999 4.20 28:00 06:40 9.00
19/11/18 2+2 und 4.00 24:00 130 06:00 10.00 ir
19/11/18 Siguldas serpentīns ozols009 15.76 2:02:19 145 07:45 7.73 ir
19/11/18 Kontūra 100/100km ozols009 5.76 34:47 140 06:02 9.94 ir
19/11/18 Ak, velns, sāp tā saite JOPROJĀM stellaa 4.47 28:57 146 06:28 9.26 ir
19/11/18 skrējiens andis161 6.00
19/11/18 Supervaroņi Grīziņkalnā Ina 13.15 1:45:00 148 07:59 7.51 ir
19/11/18 Pirmdienis Rainy777 8.00 ir
19/11/18 no rīta 2*, 1947.g.dzimusi Lilita Ozoliņa JK 1.78 13:06 07:21 8.15 ir
19/11/18 Skrējiens raraitis 14.52 1:07:42 04:39 12.87 ir
19/11/18 Skrējiens Sinta1 5.80 32:28 05:35 10.72 ir
19/11/18 100gades brīvdienā  Gauja-Lilaste-Gauja ar vīru Spāre lido 17.12 1:56:50 06:49 8.79 ir
19/11/18 Tikai tālu prom bez mitas kājas jaunas takas min Cukuriņš 14.00 1:44:25 07:27 8.04 ir
19/11/18 Recovery pēc Rembates savos laukos DK86 7.00 46:48 122 06:41 8.97
19/11/18 Louzan Trail v0.29 (Itena pa grūto) Džokers 16.00 1:10:33 04:24 13.61 ir
19/11/18 Louzan Trail v0.28 (Itena no rīta) Džokers 12.00 53:17 04:26 13.51 ir
19/11/18 skrējiens Gatis Krūze 7.00 40:24 05:46 10.40 ir
19/11/18 celins jurcha 10.03 57:02 122 05:41 10.55
19/11/18 Tests pēc Patriota Grāmatvedis 12.04 1:08:42 05:42 10.52
19/11/18 Skrējiens Swimrunner 4.39 34:16 129 07:48 7.69 ir
19/11/18 #22 SL1. Lēnās takas Beberbeķos. +122m, - 1C, 13:07 antra 9.37 1:02:04 161 06:37 9.06 ir
19/11/18 Skrējiens anikka 11.28 1:28:37 07:51 7.64 ir
19/11/18 Skrējiens xorix 5.02 28:26 05:39 10.59 ir
19/11/18 Skrējiens edžus11 8.01 40:36 05:04 11.84 ir
19/11/18 Skrējiens Ewiaa 4.50 26:42 05:56 10.11 ir
19/11/18 Skrējiens Lubyz 14.08 1:19:48 05:40 10.59 ir
19/11/18 Skrējiens GeT_RiGhT 6.68 40:01 05:59 10.02
19/11/18 Skrējiens LEICHA 7.85 45:48 05:50 10.28
19/11/18 Skrējiens zandarts 11.52 1:09:49 132 06:03 9.90 ir
19/11/18 Skrējiens edgarsbodnieks 8.15 55:28 06:48 8.82 ir
19/11/18 Skrējiens johaidi 14.13 1:17:27 05:28 10.95 ir
19/11/18 Skrējiens experc 6.46 35:11 05:26 11.02 ir
19/11/18 Skrējiens oskarsdamb 37.34 3:40:28 05:54 10.16 ir
19/11/18 Skrējiens valtijs 3.55 23:19 06:34 9.14
19/11/18 Skrējiens Ila_Kantī 1.72 10:00 05:48 10.32
19/11/18 Atsildīšanās alushox 5.51 31:06 146 05:38 10.63 ir
19/11/18 Iesildīšanās alushox 5.46 28:31 143 05:13 11.49 ir
19/11/18 Skrējiens edGars 8.71 1:10:30 08:05 7.41 ir
19/11/18 Skrējiens Elhana 6.28 43:42 06:57 8.62 ir
19/11/18 Skrējiens Jolis 12.02 59:08 04:55 12.20
19/11/18 iesildīšanās Jolis 1.00 05:56 05:56 10.11
19/11/18 Izaicinājums #1 runner-arrnis 30.00 2:26:35 143 04:53 12.28 ir
19/11/18 CC-Alfa Stunda 10.70 59:30 05:33 10.79 ir
19/11/18 150. Didzis 4.17 31:14 07:29 8.01 ir
19/11/18 98. SV H204 Brainārs 9.01 1:27:25 150 09:42 6.18 ir
19/11/18 Pirmais šajā simtgadē Rozamunde 10.21 1:03:39 06:14 9.62 ir
19/11/18 Siguldas pampaki uldis15 16.20 1:31:16 05:38 10.65 ir
19/11/18 Ziepniekkalna iela - Imanta Jānis_v 10.50 57:00 05:25 11.05 ir
19/11/18 Supervaroņi Grīziņkalnā borga 10.79 1:05:00 161 06:01 9.96 ir
19/11/18 pa tumsu Ingmar 10.11 1:00:30 05:59 10.03 ir
19/11/18 Skrejiens VP13 5.25 27:09 05:10 11.60
19/11/18 Krustpils GU 1.44 08:49 06:07 9.80 ir
19/11/18 Meditācija Miksons 4.28 22:44 05:18 11.30 ir
19/11/18 #230.6.1. JurBer 5.74 40:17 136 07:01 8.55 ir
19/11/18 Pirmdienas vakars Ginchaa 11.11 1:03:00 132 05:40 10.58
19/11/18 Pavisam lēnām un mierīgi Renee 6.13 50:10 132 08:11 7.33 ir
19/11/18 11 marcix 11.06 59:18 05:21 11.19 ir
19/11/18 Karostas meži ar tēti, Edgaru, Randu un Aiju. KarlisBumans 10.59 1:07:04 06:19 9.47 ir
19/11/18 Tikai mieru ivitis 4.60 30:14 06:34 9.13
19/11/18 Noslēdzošais koptreniņš mājās pirms #OmanByUTMB EdgarsBR 28.30 2:39:33 05:38 10.64 ir
19/11/18 Vakara skrējiens archa777 5.00 23:34 04:42 12.73 ir
19/11/18 pirmais sniedziņš polar 9.84 1:12:07 125 07:19 8.19 ir
19/11/18 skrējiens ģeda 10.40 1:04:08 156 06:10 9.73
19/11/18 Pirmdienis Sauļuks 8.23 50:13 06:06 9.83 ir
19/11/18 Rīts, +2 jurdoms 8.42 52:47 06:16 9.57 ir
19/11/18 Dienvidu tilts Olevs 17.18 1:37:01 05:38 10.62 ir
19/11/18 Asfalts, lēns Maru 10.00 54:03 140 05:24 11.10 ir
19/11/18 Treniņš andis.deze 8.80 38:04 162 04:19 13.87 ir
19/11/18 Līdz Kr.Valdemāra ielai (+2°C; A 3 m/s) atisx 10.00 1:01:33 153 06:09 9.75 ir
19/11/18 Pirmdienis _Edgars_ 21.21 1:48:46 05:07 11.70 ir
19/11/18 Skrējiens LPD 8.01 59:59 136 07:29 8.01 ir
19/11/18 Pirmdienas mierīgais noris 8.07 37:58 04:42 12.75 ir
19/11/18 skrējiens Kahn 5.01 ir
19/11/18 rīta rosme +8s stjopachio 10.65 53:39 126 05:02 11.91 ir
19/11/18 Asfalts Dzo 21.60 1:40:00 04:37 12.96 ir
19/11/18 Rīta skrējiens Edmunds 10.14 53:44 05:17 11.32 ir
19/11/18 12 km Agate_K 12.00 1:09:50 136 05:49 10.31 ir
19/11/18 Float on a river for ever and ever strazdiņš 4.75 34:00 07:09 8.38 ir
19/11/18 Treniņš Dainis 12.04 1:17:00 06:23 9.38 ir
19/11/18 Popyfield aplis gintsp 9.34 58:34 06:16 9.57 ir
19/11/18 uz mājām normundiņš 3.61 21:18 160 05:54 10.17 ir
19/11/18 uz zāli normundiņš 0.92 04:21 116 04:43 12.69 ir
19/11/18 aer villijs78 10.58 1:01:25 143 05:48 10.34 ir
19/11/18 Hes aicis 6.50 33:49 143 05:12 11.53 ir
19/11/18 Pa meža ceļu Pičuks Dz 4.40 29:31 131 06:42 8.94
19/11/18 12.00.Lénais MAKRO 19.00 1:42:09 119 05:22 11.16 ir
19/11/18 Upe (96,7) Aivars 10.29 1:20:00 130 07:46 7.72 ir
19/11/18 garskrējiens guncha 20.00 1:31:30 147 04:34 13.11 ir
19/11/18 recovery Ugisdatavs 18.80 1:33:30 125 04:58 12.06 ir
19/11/18 (78.0) pludmale Kampars 12.50 1:03:07 05:02 11.88
19/11/18 rajons Rozens 23.03 2:02:33 141 05:19 11.28 ir
19/11/18 100+1. Ap Vadzolu. Par Latvijas brīvību. Kad sniega pārslas ir sveicieni no eņģeļiem. Ligy 9.22 1:00:07 06:31 9.20 ir
19/11/18 Skrējiens Chuncha 10.00 53:15 05:19 11.27 ir
19/11/18 lv 14 km #2 maziinais 15.45 1:30:03 159 05:49 10.29 ir
19/11/18 šosis Rainers 10.20 58:50 05:46 10.40 ir
19/11/18 Rīta riksis uldis15 10.00 49:47 04:58 12.05 ir
19/11/18 treniņš gintss 18.03 1:44:27 149 05:47 10.36
19/11/18 Skrējiens Dzintars 10.20 49:51 04:53 12.28 ir
19/11/18 Pirms kūkas cepšanas Cassandra 10.55 1:02:24 05:54 10.14 ir
19/11/18 Pelnītā atpūtā viagris 4.51 30:01 156 06:39 9.01 ir
19/11/18 Latvijai 100 Desperado 10.50 1:30:00 08:34 7.00 ir
19/11/18 Latvijas kontūra Rīgā chunka 29.01 2:58:05 06:08 9.77 ir
19/11/18 Rīta skrējiens Nr.20, 8.30 Ginchaa 11.04 1:01:30 135 05:34 10.77
19/11/18 Labrīt Itena! SelfijuPavēlniece 10.20 1:04:46 177 06:20 9.45 ir
19/11/18 Treniņš Alvals 8.39 50:34 06:01 9.96 ir
19/11/18 Takas M.Po 8.02 49:36 122 06:11 9.70 ir
19/11/18 Skrējiens, +2,5° Alarion 6.70 1:00:09 134 08:58 6.68 ir
19/11/18 Nebija gaisa. Didzo 8.72 45:45 05:14 11.44 ir
19/11/18 S19.14 Alvis D 11.00 56:03 05:05 11.78 ir
19/11/18 Mūžīgā uguns skai-tlot-ajs 12.07 1:08:25 05:40 10.59 ir
19/11/18 Skrējiens. garaissss 10.45 55:31 146 05:18 11.29 ir
19/11/18 Brībdienu rīts ievajansone 7.08 50:12 134 07:05 8.46 ir
19/11/18 Atgūstos no slodzītes. 2 sacensības pēc kārtas. vitjka 4.00 24:08 06:02 9.94 ir
19/11/18 Rīta pikols 5.60 39:20 07:01 8.54 ir
19/11/18 nav nekas siltāks par sniega piku, ko cilvēks nes dāvināt otram Briedītis 5.41 33:39 06:13 9.65
19/11/18 rīts tumšs-nikni suņi Rucavs 5.63 25:25 04:30 13.29 ir
19/11/18 skrienu Jurs 2.00 10:11 05:05 11.78 ir
18/11/18 .. berzs 8.40 45:43 05:26 11.02
18/11/18 Morning run with dog sundowner 2.20 10:15 04:39 12.88 ir
18/11/18 Pirms uguņošanas ātrs skrējiens jeb otrais dienas treniņš James87 14.10 59:59 150 04:15 14.10 ir
18/11/18 Par godu Latvijas 100gades jubilejai James87 18.10 1:24:17 143 04:39 12.89 ir
18/11/18 Latvijas kontūra VilnisV 8.40 55:04 06:33 9.15 ir
18/11/18 Latvijai 100 LV kontūras skrējiens GintsB 27.32 2:49:46 120 06:12 9.66 ir
18/11/18 Amatas taka .Linda 6.60 53:27 134 08:05 7.41 ir
18/11/18 Saldus kontūra (11h) matiss 14.55 1:32:12 101 06:20 9.47 ir
18/11/18 no rīta 6*, Daudz Laimes, Latvija! JK 1.63 10:51 06:39 9.01 ir
18/11/18 Skrējiens Latvijai 100! +7°C Stayer 18.30 1:51:49 06:06 9.82 ir
18/11/18 3.Līvenhofas skrējiens 2018 Alice 5.60 32:34 05:48 10.32 ir
18/11/18 Skrējiens Sinta1 5.10 28:24 05:34 10.77 ir
18/11/18 Izskrien Latviju Liepājā trololo 8.31 53:50 06:28 9.26 ir
18/11/18 Louzan Trail v0.27 (Latvijai 100 Itenā) Džokers 14.00 1:00:55 04:21 13.79 ir
18/11/18 Louzan Trail v0.26 (Kisumu) Džokers 7.80 34:28 04:25 13.58 ir
18/11/18 Skrējiens 18/11/2018 Spaidijs (Spidey) 18.04 1:56:18 06:26 9.31 ir
18/11/18 Apskrien savu Latviju Sasmakā, vējš, +6C sola.scriptura 5.86 43:16 167 07:23 8.13 ir
18/11/18 Uz kontūru GU 0.73 04:32 06:12 9.66 ir
18/11/18 Kontŗas skrējiens LV-100 GU 6.12 44:40 07:17 8.22 ir
18/11/18 Treadmill cheburs 15.53 1:25:04 142 05:28 10.95 ir
18/11/18 +5 thunder man 26.21 2:22:47 144 05:26 11.01 ir
18/11/18 12 marcix 12.11 1:05:00 05:22 11.18 ir
18/11/18 Promenāde Olevs 10.10 56:27 05:35 10.74 ir
18/11/18 Izskrien Latviju Liepājā izbadējies 8.24 51:12 153 06:12 9.66 ir
18/11/18 Rembates apļi 2018 Mermaid 10.80 52:49 04:53 12.27 ir
18/11/18 10 km LV kontūra Agate_K 10.29 1:18:32 141 07:37 7.86 ir
18/11/18 asfalts kveks 10.00
18/11/18 Treniņš Richa_K 3.44 39:00 89 11:20 5.29
18/11/18 Treniņš Richa_K 12.07 1:20:54 123 06:42 8.95 ir
18/11/18 Skrējiens simtgadē. Daudz laimes, Latvija! Ginchaa 13.13 1:08:30 155 05:13 11.50
18/11/18 Treniņš Alvals 8.00 48:57 06:07 9.81 ir
18/11/18 Jaunmārupe skrien! 100km stafetes posms EvijaK 8.00 47:35 05:56 10.09
18/11/18 Latvijas kontūra Valmierā Dina 12.12 1:20:50 147 06:40 9.00 ir
18/11/18 Trail Freelancer 14.00 1:20:00 143 05:42 10.50 ir
18/11/18 (78.0) veloceliņš Kampars 8.50 40:13 04:43 12.68
18/11/18 Daudz laimes Latvija lvingr 4.00 33:00 120 08:15 7.27
18/11/18 Kopskrējiens par godu 18.11. alvita 8.22 52:01 131 06:19 9.48 ir
18/11/18 Svētdienis Rainy777 7.00 ir
18/11/18 Pa Rīgu Aivars 8.05 1:05:00 08:04 7.43 ir
18/11/18 Izskrien Latviju archa777 26.25 2:24:28 05:30 10.90 ir
18/11/18 Kadaga Geo 10.80 54:32 152 05:02 11.88 ir
18/11/18 Seklis sergejs1 9.07 1:00:00 06:36 9.07 ir
18/11/18 Skrējiens annele 7.16 46:04 06:26 9.33 ir
18/11/18 Skrējiens GeT_RiGhT 11.75 1:12:04 06:08 9.78
18/11/18 Skrējiens rmamedov 10.05 51:46 05:09 11.65 ir
18/11/18 Iesildīšanās Rembatē. vitjka 1.15 07:37 06:37 9.06 ir
18/11/18 Rembates aplis 2018 vitjka 10.80 47:48 04:25 13.56 ir
18/11/18 treadmill runnerchick 25.00 2:16:34 124 05:27 10.98 ir
18/11/18 Skrējiens anikka 10.03 53:59 05:22 11.15 ir
18/11/18 Latvijai par godu zandarts 18.11 1:48:29 146 05:59 10.02 ir
18/11/18 Latvijai 100 Azveja 14.31 1:39:49 06:58 8.60 ir
18/11/18 Skrējiens NITRO 7.26 41:51 05:45 10.41 ir
18/11/18 Skrējiens Logins 10.66 1:08:21 06:24 9.36 ir
18/11/18 Skrējiens Janis_O 3.32 16:10 04:52 12.32 ir
18/11/18 Neviens manā vietā neskries Normunds7 15.15 1:15:15 04:58 12.08 ir
18/11/18 Skrējiens chapic1 0.24 01:35 06:35 9.09 ir
18/11/18 Skrējiens chapic1 0.23 01:19 05:43 10.48 ir
18/11/18 Skrējiens andronkuls 0.50 04:43 09:26 6.36 ir
18/11/18 Skrējiens andronkuls 0.25 02:20 09:20 6.43 ir
18/11/18 Skrējiens andronkuls 8.55 52:08 06:05 9.84 ir
18/11/18 LRM 4.4. (016) MBirums 6.26 35:09 146 05:36 10.69 ir
18/11/18 Skrējiens xorix 18.18 1:40:00 05:30 10.91 ir
18/11/18 Skrējiens xorix 1.82 13:27 07:23 8.12 ir
18/11/18 Skrējiens LEICHA 7.05 40:31 05:44 10.44
18/11/18 Skrējiens LEICHA 3.68 19:18 05:14 11.44
18/11/18 Skrējiens LEICHA 6.42 37:57 05:54 10.15
18/11/18 Skrējiens Natthe 13.00 1:17:05 135 05:55 10.12 ir
18/11/18 Skrējiens SandisC 10.34 1:08:31 06:37 9.05 ir
18/11/18 Skrējiens kmamedova 5.56 30:41 05:31 10.87
18/11/18 Skrējiens IneJer 1.42 09:41 06:49 8.80
18/11/18 Skrējiens IneJer 10.03 46:44 04:39 12.88
18/11/18 Skrējiens edGars 8.31 53:50 06:28 9.26 ir
18/11/18 Imantas veloc.+Priedaine-ju. zirnis 15.16 1:38:41 06:30 9.22 ir
18/11/18 Pretī nūjotājiem. sigita 2.58 17:57 123 06:57 8.62 ir
18/11/18 Izskrien Latviju Saldū! sigita 10.26 1:03:41 133 06:12 9.67 ir
18/11/18 Latvija Liepājā Ita 8.06 55:57 139 06:56 8.64 ir
18/11/18 Uz kontūriņu. sigita 1.74 11:40 127 06:42 8.95 ir
18/11/18 lēns skrējiens mimite 10.17 1:13:33 144 07:13 8.30 ir
18/11/18 Basām Jaunmārupe skrien Latvija 100 stafete einmed 13.64 1:23:27 133 06:07 9.81 ir
18/11/18 Skrējiens Bubu 10.55 54:46 05:11 11.56 ir
18/11/18 Par tiem 100 Raitis 12.00 1:02:22 05:11 11.54 ir
18/11/18 Saulains svētku rīts Cassandra 10.05 1:00:09 05:59 10.02 ir
18/11/18 Latvijas kontūra Saldū chunka 11.49 1:09:26 06:02 9.93 ir
18/11/18 11:58 Dziņa 15.05 1:36:54 147 06:26 9.32 ir
18/11/18 Līvenhofas skrējiens Krī 10.00 46:07 04:36 13.01 ir
18/11/18 2019 zem 2:59:00 laacis1981 12.10 1:20:23 06:38 9.03 ir
18/11/18 Istria 100 - 13 katarakt 6.20 36:07 05:49 10.30 ir
18/11/18 Vējains svētku vakars uldis15 18.60 1:30:05 04:50 12.39 ir
18/11/18 Līdz Čempionu kaltuvei Itenā. SelfijuPavēlniece 8.10 50:08 171 06:11 9.69 ir
18/11/18 Latvijas kontūrkopskrējiens Talsos AigarsOKZK 9.42 1:03:05 06:41 8.96 ir
18/11/18 Izskrien Latvijas kontūru,Saldus Ila_Kantī 10.25 1:05:19 06:22 9.42
18/11/18 Latvijas kontūras skrējiens Valmierā Laaurappeeterzone 12.10 1:20:42 06:40 9.00 ir
18/11/18 Rembates aplis Latvijas simtgadē DK86 10.87 47:07 167 04:20 13.84 ir
18/11/18 Iesild./atsild. DK86 4.20 24:22 05:48 10.34 ir
18/11/18 Skrējiens Janxxx 12.32 1:30:00 07:18 8.21 ir
18/11/18 Atsildīšanās pēc Līvenhofas skrējiena noris 3.82 21:03 05:30 10.89 ir
18/11/18 Līvenhofas skrējiens - 10km noris 10.03 39:59 03:59 15.05 ir
18/11/18 Par 18.novembri. Didzo 18.11 1:35:00 05:14 11.44 ir
18/11/18 Iesildīšanās pirms Līvenhofas skrējiena noris 3.97 21:40 05:27 10.99 ir
18/11/18 Daudz laimes dzimšanas dienā, Latvija!!! Ginc 8.24 1:00:43 07:22 8.14 ir
18/11/18 Sporta patriots Latvijas kontūra Tukumā Aruurs 10.47 1:05:59 06:18 9.52 ir
18/11/18 skrienu +7 Kris-tin 7.01 1:00:51 141 08:40 6.91 ir
18/11/18 Līvāni aicis 2.50 13:30 05:24 11.11
18/11/18 Livonhofas skrējiens aicis 10.00 41:20 04:08 14.52 ir
18/11/18 tr briediitc 7.03 1:00:49 119 08:39 6.94 ir
18/11/18 Rembates aplis. Hiēna 10.80 51:52 04:48 12.49 ir
18/11/18 Skrējiens mtiger 10.47 1:31:47 08:45 6.84
18/11/18 (78.0) pludmale, taciņas Kampars 8.80 44:09 05:01 11.96
18/11/18 Skrējiens ruducis 29.53 2:51:56 05:49 10.31 ir
18/11/18 Ar ratiem un mazbēbi, vīrs blakus ar velo un lielbēbjiem velopiekabē nois 13.81 1:17:28 05:36 10.70 ir
18/11/18 Rembates aplis Inta Amoliņa 10.80 1:07:22 06:14 9.62 ir
18/11/18 Preston 10 mile Ugisdatavs 16.13 58:17 161 03:36 16.61 ir
18/11/18 18.novembra rīta riksis! bantiite 8.17 47:21 05:47 10.35 ir
18/11/18 iesild. aptuveni Ugisdatavs 1.00 05:00 05:00 12.00 ir
18/11/18 3.Līvenhofas skrējiens Špicka 10.23 53:30 05:13 11.47 ir
18/11/18 100 min Skrējiens par godu Latvijai runner-arrnis 21.00 1:40:01 138 04:45 12.60 ir
18/11/18 Skr Jekaterina 4.31 32:29 139 07:32 7.96 ir
18/11/18 Skrejiens VP13 5.01 25:58 05:10 11.58 ir
18/11/18 Patriotiskas skriešanas treniņsacensības M_Freimis 10.00 45:00 04:30 13.33
18/11/18 tipu tapu GintsK 10.01 1:03:53 06:22 9.40 ir
18/11/18 Skrējiens Latvijas 100 gadei +5 ZA 4/11 Aldis B 12.27 1:21:03 148 06:36 9.08 ir
18/11/18 Nedaudz izvēdināties :) aijuciiic 3.60 23:00 06:23 9.39 ir
18/11/18 Rita rosme azhons 1.60 08:50 05:31 10.87 ir
18/11/18 Ieelpo Rēzekne jurdoms 2.74 11:43 04:16 14.03 ir
18/11/18 Supervaroņi Siguldā. didzzzons 16.33 1:39:13 06:04 9.88
18/11/18 Skrējiens JERO 10.03 39:15 03:54 15.33
18/11/18 Skrējiens JERO 6.01 30:27 05:03 11.84
18/11/18 94.0 2t Ønske 8.19 ir
18/11/18 Supervaroņi Siguldā Ina 12.36 1:30:00 161 07:16 8.24 ir
18/11/18 s/c andris13 10.00 40:25 04:02 14.85 ir
18/11/18 Magnēts Rasels 7.40 51:45 144 06:59 8.58 ir
18/11/18 Don't you hear me crying, don't you hear my call Cukuriņš 16.03 1:40:00 06:14 9.62 ir
18/11/18 Rembates aplis IlzeP 10.80 1:11:10 06:35 9.11 ir
18/11/18 Dzērveņošanās Siguldā Rupucis_ 17.09 1:52:10 152 06:33 9.14 ir
18/11/18 Izskrēju Latviju Liepājā Alarion 9.96 1:45:08 129 10:33 5.68 ir
18/11/18 Katlakalns - Rāmava savanna 5.09 27:15 05:21 11.21 ir
18/11/18 Kontūr skrējiens Valmiera rotācijukaraliene 12.13 1:20:42 06:39 9.02 ir
18/11/18 Azimuts ''Brantu pasts" 7.kārta polar 9.00 1:15:15 161 08:21 7.18 ir
18/11/18 Skrējiens Wictoria 11.90 1:06:30 05:35 10.74 ir
18/11/18 Līvenhofas 10 km Chuncha 10.02 41:22 04:07 14.53 ir
18/11/18 Iesilde/atsilde Chuncha 7.50 42:02 05:36 10.71 ir
18/11/18 Atsildīšanās Rembatē OreMan 2.00 11:41 05:50 10.27 ir
18/11/18 Rembates aplis Latvijas simtgadē OreMan 10.89 40:54 03:45 15.98 ir
18/11/18 Promenāde ilZZuks 20.14 1:56:04 05:45 10.41 ir
18/11/18 Iesildīšanās Rembatē OreMan 2.40 10:59 04:34 13.11 ir
18/11/18 V Trakais 24.60 1:54:00 04:38 12.95 ir
18/11/18 mini LV stjopachio 14.18 1:14:47 132 05:16 11.38 ir
18/11/18 Līvenhofas skrējiens. Prestons 10.09 49:05 166 04:51 12.33 ir
18/11/18 Supervaroņi Siguldā (+635) borga 15.34 1:40:00 165 06:31 9.20 ir
18/11/18 Latvijai -100! Jay-P 10.00 58:55 135 05:53 10.18 ir
18/11/18 Izskrien Latviju Liepājā KarlisBumans 8.30 52:30 06:19 9.49 ir
18/11/18 #21 SL1. Supervaroņi Siguldā! :) Ātrās takas. +546m, -1C, 10:11 antra 12.82 1:37:23 172 07:35 7.90 ir
18/11/18 mežš teicamnieks 7.50 52:00 06:56 8.65 ir
18/11/18 Līdz Mežaparkam (+7°C; Z 8 m/s) atisx 15.00 1:34:08 160 06:16 9.56 ir
18/11/18 Izskrien Latviju Liepājā! Uldzha 8.39 1:09:41 08:18 7.22 ir
18/11/18 181.Latvijas kontūra ilvarito 11.58 1:14:34 06:26 9.32 ir
18/11/18 149.Latvijas kontūra Valmierā Didzis 12.02 1:21:01 06:44 8.90 ir
18/11/18 Sigulda alushox 14.26 1:33:46 150 06:34 9.12 ir
18/11/18 Mana Latvija anciite 14.07 1:34:49 06:44 8.90 ir
18/11/18 Latvijas kontūrs Jelgavā nonnis 18.18 1:45:04 05:46 10.38 ir
18/11/18 Asfalts Dzo 12.70 59:40 04:41 12.77 ir
18/11/18 Latvijai 100 Maikijs 7.00 46:42 06:40 8.99 ir
18/11/18 LV100. Pirms kora a-anna 13.10 1:23:00 06:20 9.47 ir
18/11/18 Brīvības rogainings LPD 29.79 3:56:17 07:55 7.56 ir
18/11/18 lielais Latvijas kontūrskrējiens Jelgavā Diddi 18.35 1:59:44 06:31 9.20 ir
18/11/18 Rīta pikols 10.60 1:10:57 06:41 8.96 ir
18/11/18 uz/no Diddi 2.25 15:36 06:56 8.65 ir
18/11/18 skrējiens kopijs 4.69 30:01 139 06:24 9.37 ir
18/11/18 Rīta riksis uldis15 10.20 50:20 04:56 12.16 ir
18/11/18 Noskriesimziemu14 Aikeris 5.10 32:33 151 06:22 9.40 ir
18/11/18 18.novembris ugis_v 18.18 1:38:44 136 05:25 11.05 ir
18/11/18 #229.5.7. JurBer 10.45 1:12:31 140 06:56 8.65 ir
18/11/18 22 und 22.75 1:54:17 158 05:01 11.94 ir
18/11/18 Skrējiens lerychv 15.69 1:30:09 117 05:44 10.44 ir
18/11/18 Sveicieni svētkos!!! JanisSkrien 25.00 2:15:23 154 05:24 11.08 ir
18/11/18 Vecrīgas zvanu torņu mūzikas pavadībā skai-tlot-ajs 11.72 1:05:10 05:33 10.79 ir
18/11/18 Rīta skrējiens ievajansone 7.12 48:10 141 06:45 8.87 ir
18/11/18 Skrējiens Ila_Kantī 1.81 08:56 04:56 12.16
18/11/18 Skrējiens andis161 8.50
18/11/18 veides mežs Rucavs 9.61 51:50 05:23 11.12 ir
18/11/18 15x400/200 treadmill 90 sec runnerchick 9.00 43:10 172 04:47 12.51 ir
18/11/18 warmup cooldown runnerchick 8.00 48:00 123 06:00 10.00 ir
18/11/18 skrējiens Gatis Krūze 5.00 29:57 05:59 10.02 ir
18/11/18 322. vitaminka D 3.02 13:15 04:23 13.68
18/11/18 rīta rosme kaķis 4.98 33:00 146 06:37 9.05 ir
17/11/18 LV100 berzs 14.45 1:32:14 06:22 9.40
17/11/18 Brīvības rogainings, mans pirmais AngelLika21 32.59 3:53:46 161 07:10 8.36
17/11/18 Par godu tuvojošajiem Latvijas 100gades svētkiem James87 17.10 1:13:45 148 04:18 13.91 ir
17/11/18 Brīvības rogainings Ultralapsa 41.25 5:56:41 08:38 6.94 ir
17/11/18 Skrējiens (2×200!/200+1×400!/200+2×200!/200) Ločmele 8.00 42:43 05:20 11.24 ir
17/11/18 Drusku patriots Ilze1409 4.50
17/11/18 izskriet dusmiņu .Linda 9.00 59:00 138 06:33 9.15 ir
17/11/18 Razminka Tatjana1999 3.55 24:46 06:58 8.60
17/11/18 Saldus kontūras ģenerālmēģinājums (10h) matiss 10.26 1:02:44 103 06:06 9.81 ir
17/11/18 Karogu skrējiens Sanča_Ro 15.00 2:11:02 08:44 6.87 ir
17/11/18 no rīta 2*, 1942.g.dzimis Martins Skorsēze JK 1.63 11:18 06:55 8.65 ir
17/11/18 Louzan Trail v0.25 (Nakuru no rīta) Džokers 9.00 39:13 04:21 13.77 ir
17/11/18 Patriots Grāmatvedis 23.38 2:37:29 06:44 8.91
17/11/18 Iesildīšanās pirms Patriota Grāmatvedis 2.26 15:45 06:58 8.61
17/11/18 Skrējiens pēc darba Jolis 15.12 1:21:21 05:22 11.15
17/11/18 Treadmill cheburs 10.03 1:00:45 138 06:03 9.91 ir
17/11/18 6 marcix 6.00 32:26 05:24 11.10 ir
17/11/18 Karogu skrējiens EdgarsBR 25.74 2:43:59 06:22 9.42 ir
17/11/18 8 km LV kontūra Agate_K 8.37 55:25 139 06:37 9.06 ir
17/11/18 8 km serpentīns Agate_K 8.10 49:50 149 06:09 9.75 ir
17/11/18 s js79 10.10 ir
17/11/18 st. kveks 10.00 45:35 04:33 13.16
17/11/18 Patriots Richa_K 23.10 1:57:38 149 05:05 11.78 ir
17/11/18 Sestdienis Rainy777 4.00 ir
17/11/18 Svētku skrējiens Patriots puuce 23.01 1:43:43 04:30 13.31 ir
17/11/18 warm up puuce 1.58 07:52 04:58 12.05 ir
17/11/18 treniņš gintss 12.50 1:12:17 150 05:46 10.38
17/11/18 5.Skrējiens “Patriots 2018” Alice 7.90 54:58 06:57 8.62 ir
17/11/18 Patriots Renee 23.22 2:36:44 169 06:44 8.89 ir
17/11/18 Patriots lvingr 8.00 43:41 155 05:27 10.99
17/11/18 Skrējiens uzzy 21.49 2:26:39 06:49 8.79 ir
17/11/18 Brīvības rogainings Kandavā. alvita 47.79 5:59:28 137 07:31 7.98 ir
17/11/18 Apkārt Baltezeram, 4x5min@4:12 Geo 12.00 1:00:06 157 05:00 11.98 ir
17/11/18 Skrējiens Logins 9.01 1:00:24 06:42 8.95 ir
17/11/18 Skrējiens Janis_O 6.02 29:12 04:51 12.37 ir
17/11/18 Skrējiens Casperr 103.28 14:05:13 08:11 7.33 ir
17/11/18 Īstajā laikā Normunds7 20.57 1:42:27 04:58 12.05 ir
17/11/18 Basām skrējiens Patriots einmed 7.93 48:51 141 06:09 9.74 ir
17/11/18 Skrējiens Bubu 8.66 42:50 04:56 12.13 ir
17/11/18 Patriots imy 23.00 1:48:00 04:41 12.78 ir
17/11/18 Skrējiens pusdienlaikā Raitis 10.60 54:16 05:07 11.72 ir
17/11/18 13:01 Dziņa 30.03 3:05:33 155 06:10 9.71 ir
17/11/18 Skrējiens (3*1m) Laaurappeeterzone 7.17 38:45 05:24 11.10 ir
17/11/18 Saules mūžu Latvijai. Svētku skrējiens PATRIOTS! Sanāca izskriet septītajam. Huch 22.88 1:43:00 04:30 13.33 ir
17/11/18 Iesildīšanās Huch 2.50 14:57 05:58 10.03 ir
17/11/18 Izskrien Latviju Liepājā, pārbaude ar meitiņu... Ginc 8.27 1:02:38 07:34 7.92 ir
17/11/18 Brīvības rogainings neirula 25.33 3:56:02 09:19 6.44 ir
17/11/18 skrienu +4 Kris-tin 5.28 47:08 143 08:55 6.72 ir
17/11/18 tr briediitc 5.36 47:11 135 08:48 6.82 ir
17/11/18 Svētku skrējiens "Patriots". Hiēna 23.47 2:09:21 05:30 10.89 ir
17/11/18 Svētku skrējiens Patriots seismologs 22.94 1:55:39 154 05:02 11.90 ir
17/11/18 Rita rosme azhons 1.60 08:10 05:06 11.76 ir
17/11/18 Rīts, +1 jurdoms 8.68 56:51 06:32 9.16 ir
17/11/18 Brīvības rogainings Ugis 32.98 4:00:01 14 07:16 8.24 ir
17/11/18 Skanste Ina 10.82 1:06:00 158 06:05 9.84 ir
17/11/18 Patriots Samiks 23.15 2:19:10 141 06:00 9.98
17/11/18 Welcome to my country but here you're bound to fall Cukuriņš 12.13 1:00:15 04:58 12.08 ir
17/11/18 silde Rozens 3.33 19:42 128 05:54 10.14 ir
17/11/18 sacenes Grīziņkalnā 10km Rozens 9.93 43:15 169 04:21 13.78 ir
17/11/18 Niedrājs polar 10.65 1:07:28 143 06:20 9.47 ir
17/11/18 V Trakais 11.92 52:25 04:23 13.64 ir
17/11/18 Patriots Raitis58 8.30 1:01:28 07:24 8.10 ir
17/11/18 Skrējiens "Patriots - 2018" Jay-P 23.05 2:09:31 149 05:37 10.68 ir
17/11/18 Noskriesimziemu13 Aikeris 8.15 1:00:44 146 07:27 8.05 ir
17/11/18 Brivibas rogainigs. Kandava. +4 bowskis 29.00 4:02:00 08:20 7.19 ir
17/11/18 Orient DLK 13.33 1:51:29 08:21 7.17 ir
17/11/18 Latvijas kontūras skrējiens plašākā kompānijā skai-tlot-ajs 13.84 1:25:39 06:11 9.70 ir
17/11/18 veloceliņš Kampars 8.50 42:48 05:02 11.92
17/11/18 pludmale, šoseja, veloceliņš Kampars 13.40 1:05:10 04:51 12.34
17/11/18 skrējiens Gatis Krūze 4.00 24:32 06:08 9.78 ir
17/11/18 321. vitaminka D 14.69 1:06:47 04:32 13.20 ir
17/11/18 Skrējiens raraitis 3.49 20:21 05:49 10.29 ir
17/11/18 Skrējiens raraitis 5.52 21:00 03:48 15.77 ir
17/11/18 Skrējiens raraitis 2.44 14:03 05:45 10.42 ir
17/11/18 Svētku skrējiens " Patriots" Black Canary 23.12 2:33:10 06:37 9.06
17/11/18 Skrējiens ruducis 8.26 46:45 05:39 10.60 ir
17/11/18 Skrējiens Janxxx 7.99 46:49 05:51 10.24 ir
17/11/18 LRM 4.3. (015) MBirums 12.03 1:13:25 143 06:06 9.83 ir
17/11/18 “Izskrien Latviju Saldū” ģenerālmēģinājums. sigita 10.24 1:02:43 137 06:07 9.80 ir
17/11/18 Skrējiens IneJer 5.06 30:33 06:02 9.94
17/11/18 skrējiens Kahn 10.50 ir
17/11/18 Skrējiens zandarts 8.58 54:00 128 06:17 9.53 ir
17/11/18 Skrējiens NaurisZ 7.87 37:54 04:48 12.46 ir
17/11/18 PATRIOTS vitjka 23.01 1:57:59 05:07 11.70 ir
17/11/18 Skrējiens mriden 10.01 1:01:36 06:09 9.75
17/11/18 Skrējiens kmamedova 6.05 34:26 05:41 10.54
17/11/18 Skrējiens valtijs 7.88 59:02 07:29 8.01
17/11/18 Skrējiens Valters 6.70 40:24 06:01 9.95 ir
17/11/18 Skrējiens Natthe 8.00 45:23 137 05:40 10.58 ir
17/11/18 Skrējiens chapic1 10.06 49:56 04:57 12.09 ir
17/11/18 Skrējiens edžus11 7.96 41:35 05:13 11.49 ir
17/11/18 Skrējiens edGars 8.15 47:28 05:49 10.30 ir
17/11/18 Orientēšanās frišais 43.14 5:59:11 08:19 7.21 ir
17/11/18 Skrējiens Ila_Kantī 3.06 17:54 05:50 10.26
17/11/18 Skrējiens johaidi 28.02 3:02:11 06:30 9.23 ir
17/11/18 Iesildīšanās pirms Patriotskrējiena. Valdis.M 0.71 03:56 05:32 10.83 ir
17/11/18 Patriots - svētku skrējiens. 17 vieta. Valdis.M 23.07 1:53:09 04:54 12.23 ir
17/11/18 Skrējiens xorix 5.05 28:56 05:43 10.47 ir
17/11/18 Skrējiens rmamedov 6.02 33:46 05:36 10.70 ir
17/11/18 Skrējiens GeT_RiGhT 6.51 44:49 06:53 8.72
17/11/18 Gatavošanās vīrusu sezonai RobertsR 5.20 25:24 155 04:53 12.28 ir
17/11/18 Patriots Krī 8.00 45:41 05:42 10.51 ir
17/11/18 Brīvības rogainings Lauma 41.01 5:55:55 144 08:40 6.91 ir
17/11/18 Pa kāpu mežu m.jordan 13.53 1:10:30 05:12 11.51 ir
17/11/18 Līdz Zirņu ielai (+5°C; R 3 m/s) atisx 8.00 50:28 154 06:18 9.51 ir
17/11/18 Bajāri jurcha 12.03 1:11:20 122 05:55 10.12
17/11/18 Brīvības rogainings Kandava Argons 46.35 5:56:33 07:41 7.80 ir
17/11/18 Svētku skrējiens Patriots Prestons 23.15 2:13:59 156 05:47 10.37 ir
17/11/18 Krustpils GU 2.34 13:23 05:43 10.49
17/11/18 Patriots 2018 mimite 8.00 58:08 141 07:16 8.26 ir
17/11/18 Uz no Latvija spruuds 12.48 1:10:00 05:36 10.70 ir
17/11/18 Brīvības rogainings nonnis 35.04 5:44:53 09:50 6.10 ir
17/11/18 Ninieris un Ērgļu klintis - lielais aplis ArnisŠ 15.35 1:35:00 06:11 9.69
17/11/18 Skrējiens vetrasputns 8.00 49:43 139 06:12 9.65 ir
17/11/18 Patriota skrējiens lielaa saule 8.00 57:12 07:09 8.39 ir
17/11/18 "mazais" Patriots Dina 7.91 44:20 177 05:36 10.71 ir
17/11/18 skrējiens pēc laivas atslēgām Lielkuilis 21.15 1:44:58 04:57 12.09 ir
17/11/18 Paskrien GintsB 11.01 1:04:39 121 05:52 10.22 ir
17/11/18 Ar suni strelks 2.00 11:30 05:45 10.43
17/11/18 Svētku skrējiens Patriots KVerdens 7.94 45:09 171 05:41 10.55 ir
17/11/18 Skrējiens Lauris 9.76 1:16:11 122 07:48 7.69 ir
17/11/18 Patriots 2018 M.Po 23.01 2:00:37 152 05:14 11.45 ir
17/11/18 Veselības apļi Grīziņkalnā. Andrejs 10.11 43:06 04:15 14.07 ir
17/11/18 Sestdienis _Edgars_ 10.80 1:01:31 05:41 10.53 ir
17/11/18 Brīvības rogainings (Istria 100 - 12) katarakt 32.20 3:54:00 07:16 8.26 ir
17/11/18 Brīvības rogainings Lasma3 22.00 3:56:00 10:43 5.59 ir
17/11/18 tren. Girts76 5.00 28:59 05:47 10.35 ir
17/11/18 Garais Freelancer 18.35 1:40:09 144 05:27 10.99 ir
17/11/18 Katlakalns - Rāmava - Valdlauči savanna 10.08 57:18 05:41 10.55 ir
17/11/18 Brīvības rogainings ar dēlu chunka 21.30 2:56:48 08:18 7.23
17/11/18 Latvijā 100... stafete Rainers 20.00 1:45:15 05:15 11.40 ir
17/11/18 Alle hop Patriots Arle 7.96 52:23 160 06:34 9.12 ir
17/11/18 tipu tapu GintsK 23.28 2:32:56 06:34 9.13 ir
17/11/18 pludmale teicamnieks 13.00 1:35:00 07:18 8.21 ir
17/11/18 Treniņš Zviedriete 8.19 46:26 05:40 10.58
17/11/18 Viada zirnis 7.31 41:36 05:41 10.54 ir
17/11/18 skr Jekaterina 6.42 43:00 147 06:41 8.96 ir
17/11/18 Patriota skrējiens marchello_ 8.00 40:13 05:01 11.94
17/11/18 Brīvības rogainings uldis15 28.20 4:07:12 08:45 6.84 ir
17/11/18 treadmill DServ 15.00 1:22:58 05:31 10.85 ir
17/11/18 trenins gintsp 11.65 1:14:29 06:23 9.38 ir
17/11/18 No rīta Maikijs 10.00 1:07:08 06:42 8.94 ir
17/11/18 Patriots Cassandra 23.00 2:07:25 05:32 10.83 ir
17/11/18 Skrējiens +2 C InTi68 22.36 2:35:55 140 06:58 8.60 ir
17/11/18 Par godu rītdienas Latvijas dzimšanas dienai 18.11 km (Karosta, meži) KarlisBumans 18.11 1:46:49 140 05:53 10.17 ir
17/11/18 Svētku skrējiens “Patriots 2018″ MartinsF 23.23 2:56:57 162 07:37 7.88 ir
17/11/18 Rīta skrējiens Edmunds 21.19 1:53:23 05:21 11.21 ir
17/11/18 Skrējiens mtiger 25.79 3:58:16 09:14 6.49 ir
17/11/18 Infinity Fitness Day 6 guncha 7.00 38:00 05:25 11.05 ir
17/11/18 Patriots, īsā distance Diddi 8.17 52:44 06:27 9.30 ir
17/11/18 Kalnciema kvartāla tirdziņš +++ Raibacainais Ezītis 21.45 1:58:14 05:30 10.89 ir
17/11/18 Mežaparks kaķis 9.95 1:14:27 130 07:28 8.02 ir
17/11/18 Treniņš andis.deze 9.69 41:51 158 04:19 13.89 ir
17/11/18 #228.5.6. JurBer 8.48 1:06:52 140 07:53 7.61 ir
17/11/18 Skrējiens borga 21.00 1:52:00 152 05:20 11.25 ir
17/11/18 Pa Salaspili Aivars 4.06 31:00 107 07:38 7.86 ir
17/11/18 Meditācija Miksons 3.04 15:26 05:04 11.82 ir
17/11/18 Patriots Miksons 23.28 1:41:22 04:21 13.78 ir
17/11/18 Sestdienas mierīgais noris 8.08 40:02 04:57 12.11 ir
17/11/18 Ar Artūru runājām, ka esot jāsāk gatavoties nākamajai sezonai tagad. aijuciiic 6.30 48:18 07:40 7.83 ir
17/11/18 Skrējiens Chuncha 6.00 33:30 05:35 10.75 ir
17/11/18 17_nov_18 eguceic 10.32 57:33 05:34 10.76 ir
17/11/18 Rīta skrējiens nr.19, 7.30 Ginchaa 12.13 1:14:43 06:09 9.74
17/11/18 Skrējiens uz/no un Parkrun. Vēsi un viegli bunbinja 7.88 47:52 143 06:04 9.88 ir
17/11/18 Asfalts Dzo 18.00 1:27:16 04:50 12.38 ir
17/11/18 Skrējiens Dzintars 11.07 55:08 04:58 12.05 ir
17/11/18 S19.13 Alvis D 46.00 3:36:54 04:42 12.72 ir
17/11/18 97. H620 Brainārs 12.07 1:28:46 153 07:21 8.16 ir
17/11/18 cits piečuks personaskods 5.04 35:31 151 07:02 8.51 ir
17/11/18 Mārupīte ilZZuks 12.00 1:11:15 05:56 10.11
17/11/18 Sestdiena. Inzy 9.05 56:52 06:17 9.55 ir
17/11/18 Kontura Ilze 18.12 1:52:31 06:12 9.66 ir
17/11/18 LV maziinais 14.13 1:25:49 164 06:04 9.88 ir
17/11/18 Par savējiem /6.1 purene_vulgaris (parasta) 6.33 42:49 06:45 8.87 ir
17/11/18 . ush 15.36 1:21:34 133 05:18 11.30 ir
17/11/18 Brīvdienu rīts ievajansone 7.06 46:50 143 06:38 9.04 ir
17/11/18 Skrējiens Wictoria 13.39 1:13:03 05:27 11.00 ir
17/11/18 sava prieka pēc +5, silti Špicka 6.25 33:23 05:20 11.23 ir
17/11/18 #20 SL1. Lēnām ap rajonu. Vēsīgi. +3m, +1C, 09:08 antra 9.53 1:02:54 148 06:36 9.09 ir
17/11/18 Skrējiens oskarsdamb 31.99 3:06:15 05:49 10.31 ir
17/11/18 Skrējiens lerychv 9.67 56:00 119 05:47 10.36 ir
17/11/18 Skrējiens Pokainis 6.43 40:18 06:16 9.57 ir
17/11/18 Skrējiens Ila_Kantī 0.22 01:22 06:12 9.66
17/11/18 Rīts ar Andreju & co. uz Linezeru peldēt un vingrot OreMan 4.30 28:06 06:32 9.18 ir
17/11/18 Rīta pikols 10.10 1:09:47 06:54 8.68 ir
17/11/18 Sestdiena VilnisV 10.58 1:17:52 128 07:21 8.15 ir
17/11/18 Šie ēdienkartē ir uz palikšanu. Didzo 8.85 46:21 05:14 11.46 ir
17/11/18 Rīts, +0C migla tumsā Lote 5.64 34:24 06:05 9.84 ir
17/11/18 rīts tumšs Rucavs 6.73 32:57 04:53 12.25 ir
17/11/18 Skrējiens andis161 8.30
16/11/18 Morning run with dog sundowner 2.70 13:00 04:48 12.46 ir
16/11/18 Olaine Naurītis 12.16 1:06:13 150 05:26 11.02 ir
16/11/18 Piektdien Biruta 8.05 49:46 06:10 9.71 ir
16/11/18 no rīta 6*, Starptautiskā iecietības diena JK 1.67 11:23 06:48 8.80 ir
16/11/18 6 marcix 6.03 32:24 05:22 11.17 ir
16/11/18 Piektdienis Sauļuks 7.44 43:04 05:47 10.37 ir
16/11/18 10 km Agate_K 10.04 1:00:00 132 05:58 10.04 ir
16/11/18 st. kveks 6.00
16/11/18 Treniņš Richa_K 12.28 1:05:44 137 05:21 11.21 ir
16/11/18 Mazliet ātrāk EvijaK 7.14 55:11 07:43 7.76
16/11/18 Lidosta lvingr 3.00 25:00 120 08:20 7.20 ir
16/11/18 Skrējiens Janis_O 8.10 40:10 04:57 12.10 ir
16/11/18 Dziesma,ar ko tu sāksies? Normunds7 20.13 1:39:07 04:55 12.19 ir
16/11/18 Skrējiens Bubu 7.77 40:00 05:08 11.66 ir
16/11/18 Skrējiens rmamedov 2.01 11:58 05:57 10.08 ir
16/11/18 Skrējiens Laaurappeeterzone 9.00 50:38 145 05:37 10.66 ir
16/11/18 Puika ciemos, forši skriet!!! Ginc 5.00 35:30 07:06 8.45 ir
16/11/18 Piektdienis bantiite 7.33 41:34 05:40 10.58 ir
16/11/18 Rita rosme azhons 1.60 08:40 05:25 11.08 ir
16/11/18 Pulsa treniņš. didzzzons 14.04 1:07:21 04:47 12.51
16/11/18 Skrējiens JERO 13.63 1:04:23 04:43 12.70
16/11/18 Welcome to my country but here you don't belong. Stay with me forever, stay as long as you want Cukuriņš 11.40 1:03:38 05:34 10.75 ir
16/11/18 Run DLK 5.03 29:31 05:52 10.22 ir
16/11/18 ielas Kampars 2.10 11:48 05:37 10.68
16/11/18 Skrējiens Ewiaa 8.03 44:29 05:32 10.83 ir
16/11/18 Staro Rīga Skrējiens Millers 4.14 20:17 04:53 12.25 ir
16/11/18 treadmill runnerchick 8.00 44:12 124 05:31 10.86 ir
16/11/18 Rīga staro GU 4.24 26:30 06:15 9.60 ir
16/11/18 Pirms brīvdienām Andris__Z 3.27 23:32 139 07:11 8.34 ir
16/11/18 vakara treniņš mihails.basmanovs 10.00
16/11/18 Skrējiens uz BuggyFit bunbinja 1.47 10:21 141 07:02 8.52 ir
16/11/18 Piektdienis _Edgars_ 9.10 50:12 05:30 10.88 ir
16/11/18 Tikai labais. Didzo 7.58 48:06 06:20 9.46 ir
16/11/18 Otrais mēģinājums Antramons 10.10 1:06:39 06:35 9.09 ir
16/11/18 Staro Rīga Skrējiens 2018 ArinaMurr 5.00 24:52 04:58 12.06
16/11/18 Skrējiens raraitis 6.05 31:34 05:13 11.50 ir
16/11/18 Piektdienis Rainy777 5.00 ir
16/11/18 Staro Riga rogainings bowskis 15.80 2:03:00 07:47 7.71 ir
16/11/18 Tampere GK 14 6.75 54:15 148 08:02 7.47 ir
16/11/18 Skrējiens johaidi 13.24 1:17:21 05:50 10.27 ir
16/11/18 320. vitaminka D 7.20 32:29 04:30 13.30 ir
16/11/18 Skrējiens IneJer 9.19 55:22 06:01 9.96
16/11/18 Skrējiens Romeo 4.07 25:00 06:08 9.77 ir
16/11/18 Skrējiens Pokainis 9.72 54:16 05:34 10.75 ir
16/11/18 Skrējiens rmamedov 2.01 11:25 05:40 10.56 ir
16/11/18 Skrējiens xorix 4.10 22:24 05:27 10.98 ir
16/11/18 Skrējiens cheburs 9.53 50:57 05:20 11.22 ir
16/11/18 Skrējiens MārcisB 7.00 42:00 06:00 10.00 ir
16/11/18 Paskrien GintsB 21.11 2:25:50 116 06:54 8.69 ir
16/11/18 Skrējiens Lubyz 9.26 52:54 05:42 10.50 ir
16/11/18 Skrējiens zandarts 9.18 1:01:11 125 06:39 9.00 ir
16/11/18 Skrējiens mriden 10.09 1:02:54 06:14 9.62 ir
16/11/18 uz mājām mimite 0.90 05:53 154 06:32 9.18 ir
16/11/18 Piektdienas mierīgais noris 10.01 49:30 04:56 12.13 ir
16/11/18 Izskrien Latvijas kontūru Jelgavā mimite 5.92 38:28 165 06:29 9.23 ir
16/11/18 kepka Stunda 2.97 15:09 05:06 11.76 ir
16/11/18 kepka Stunda 2.60 15:25 05:55 10.12 ir
16/11/18 Lokanais Fedosejs Jay-P 3.07 18:00 130 05:51 10.23 ir
16/11/18 Fizo + vingr. runner-arrnis 10.00 43:23 04:20 13.83 ir
16/11/18 bdzc js79 14.20 ir
16/11/18 Staro Rīga! Lēni, +4C sola.scriptura 6.22 1:26:16 99 13:52 4.33 ir
16/11/18 Garā vientuļā. Iekustamies pēc Neiespējamā Ita 8.00 46:37 135 05:49 10.30 ir
16/11/18 pusdienas - Zilie kalni EdgarsBR 13.11 1:14:13 05:39 10.60 ir
16/11/18 Rīta riksis Cassandra 2.55 15:49 06:12 9.67 ir
16/11/18 Staro Rīga skrējiens 2018 Lucavsalā kaķis 5.00 20:56 159 04:11 14.33 ir
16/11/18 vakara rosmīte Inta Amoliņa 4.20 27:50 06:37 9.05 ir
16/11/18 Vakara skrējiens JanisSkrien 10.00 1:05:00 128 06:30 9.23 ir
16/11/18 Bišķiņ! Huch 6.06 32:01 05:16 11.36 ir
16/11/18 Vakara skrējiens Edmunds 15.22 1:19:13 05:12 11.53 ir
16/11/18 uz darbu Rasels 10.60 1:02:00 05:50 10.26 ir
16/11/18 96. Brainārs 10.04 59:48 147 05:57 10.07 ir
16/11/18 skrējiens AigarsOKZK 11.11 1:06:35 05:59 10.01 ir
16/11/18 Pa Salaspili Aivars 4.66 36:00 07:43 7.77 ir
16/11/18 Hes aicis 10.00 49:41 04:58 12.08 ir
16/11/18 skrējiens Kahn 4.05 ir
16/11/18 Vakars uldis15 18.20 1:28:24 04:51 12.35 ir
16/11/18 Mežaparks alushox 17.05 1:34:34 137 05:32 10.82 ir
16/11/18 Mājup... Raibacainais Ezītis 11.00 1:01:24 05:34 10.75 ir
16/11/18 Louzan Trail v0.24 (Nakuru pēcpusdienā) Džokers 13.00 56:13 04:19 13.87 ir
16/11/18 Louzan Trail v0.23 (Nakuru no rīta) Džokers 7.50 32:21 04:18 13.91 ir
16/11/18 mazais Latvijas kontūrskrējiens Jelgavā Diddi 6.24 38:35 06:10 9.70 ir
16/11/18 uz/no kontūrskējiena Diddi 2.93 19:58 06:48 8.80 ir
16/11/18 tipu tapu GintsK 17.65 1:56:58 06:37 9.05 ir
16/11/18 Līdz Zirņu ielai (+1°C; D 3 m/s) atisx 8.00 49:00 153 06:07 9.80 ir
16/11/18 vakarnieks guncha 7.77 38:44 04:59 12.04 ir
16/11/18 Asfalts Dzo 18.00 1:25:02 04:43 12.70 ir
16/11/18 Līču plava un mežs bro 11.02 1:08:30 137 06:12 9.65 ir
16/11/18 1.Lat. vavere 5.11 46:05 142 09:01 6.65 ir
16/11/18 Pirms svinīgā pasākuma Ginchaa 17.47 1:30:19 147 05:10 11.61
16/11/18 Skrējiens Chuncha 8.00 46:47 05:50 10.26 ir
16/11/18 skrējiens ģeda 8.80 54:42 148 06:12 9.65 ir
16/11/18 We scanned the skies with rainbow eyes strazdiņš 4.88 34:00 06:58 8.61 ir
16/11/18 1+0=10. Ap Vadzolu pirms aizbraukšanas. Nodomā par Mazo Princi. Pateicībā ar lapsiņu. Ligy 10.13 1:01:00 06:01 9.96 ir
16/11/18 Nodeva svētku vīkendam gskunstins 9.70 55:31 116 05:43 10.48 ir
16/11/18 Rīta riksis, nokavējot vāverrītu startu skai-tlot-ajs 8.06 46:57 05:49 10.30 ir
16/11/18 Andrejostā foršākie kuģīši Dainis 12.06 1:18:27 06:30 9.22 ir
16/11/18 Vāveres ielūdz #3.7 chunka 8.56 51:15 05:59 10.02 ir
16/11/18 Endomondo neuzlikās pareizās fīčas. vitjka 9.59 48:47 05:05 11.80 ir
16/11/18 94.2 -0- Ønske 5.85 ir
16/11/18 s/c andris13 10.00 44:03 04:24 13.62 ir
16/11/18 12:20 Mežaparks(+5) GačusSkrunda 10.80 59:13 05:28 10.94 ir
16/11/18 --"-- Elīna K 6.05 43:00 07:06 8.44 ir
16/11/18 Skrējceliņš Andrejs V. 5.17 25:29 143 04:55 12.17 ir
16/11/18 Skrējiens DK86 6.00 31:19 140 05:13 11.50 ir
16/11/18 Rāmava Ina 9.00 59:44 158 06:38 9.04 ir
16/11/18 Skrējiens mežā Roziiite 5.10 37:10 07:17 8.23 ir
16/11/18 Intervāli Emons 8.01 44:51 05:35 10.72 ir
16/11/18 Pēc dežūras Shuma 10.20 1:00:39 142 05:56 10.09 ir
16/11/18 Skrējiens. garaissss 10.45 56:05 145 05:22 11.18 ir
16/11/18 Skrējiens, +8° Alarion 6.76 1:00:10 138 08:54 6.74 ir
16/11/18 pēc maiņas guncha 8.00 38:37 124 04:49 12.43 ir
16/11/18 No rīta Maikijs 8.00 53:02 06:37 9.05 ir
16/11/18 Skrējiens lerychv 8.97 46:56 129 05:13 11.47 ir
16/11/18 V Trakais 13.24 55:28 04:11 14.32 ir
16/11/18 Skrējiens Ila_Kantī 1.31 09:07 06:57 8.62
16/11/18 Skrējiens raraitis 10.05 50:28 05:01 11.95 ir
16/11/18 Skrējiens johaidi 8.86 50:34 05:42 10.51 ir
16/11/18 Skrējiens oskarsdamb 12.27 1:10:56 05:46 10.38 ir
16/11/18 Skrējiens Jaudinieks 8.19 44:44 05:27 10.99 ir
16/11/18 Uz darbu Guna 11.12 1:07:10 06:02 9.93 ir
16/11/18 T5 tuulpe 5.10 54:38 154 10:42 5.60 ir
16/11/18 quicktracks.v1 Stunda 4.22 20:27 04:50 12.38 ir
16/11/18 treadmill DServ 12.00 1:02:12 05:11 11.58 ir
16/11/18 Labrīt Nakuru! SelfijuPavēlniece 5.30 34:40 174 06:32 9.17 ir
16/11/18 Rīta pikols 10.31 1:09:05 06:42 8.95
16/11/18 Te ir darbs! Raibacainais Ezītis 11.14 1:04:35 05:47 10.35 ir
16/11/18 Ar Vāverēm Ainars 14.00 1:20:00 05:42 10.50 ir
16/11/18 Vāveres ielūdz no rītiem borga 10.36 1:00:00 145 05:47 10.36 ir
16/11/18 Rīta intervāli uldis15 8.90 47:59 05:23 11.13 ir
16/11/18 Rīta lēnais ievajansone 4.02 32:50 124 08:10 7.35 ir
15/11/18 Show must go on!!! AngelLika21 7.16 40:09 162 05:36 10.70
15/11/18 Paskrējiens Ize_De 10.33 1:10:36 06:50 8.78 ir
15/11/18 Skrējiens Ločmele 9.16 52:38 05:44 10.44 ir
15/11/18 Darbā Naurītis 1.20 06:00 160 05:00 12.00 ir
15/11/18 no rīta 7*, Palestīna - Neatkarības diena JK 1.64 10:29 06:23 9.39 ir
15/11/18 skrējiens ar suni Mermaid 5.00 29:11 05:50 10.28 ir
15/11/18 st. kveks 6.00
15/11/18 Bāzes skrējiens EvijaK 7.42 1:00:05 127 08:05 7.41
15/11/18 Pkm lvingr 4.00 45:00 125 11:15 5.33
15/11/18 Skrējiens Logins 15.52 1:52:05 07:13 8.31 ir
15/11/18 Skrējiens Janis_O 4.06 20:50 05:07 11.69 ir
15/11/18 Skrējiens LEICHA 2.97 10:28 03:31 17.03
15/11/18 Basām Jūrmalā ar sievu einmed 12.20 1:41:23 108 08:18 7.22 ir
15/11/18 Skrējiens Bubu 6.31 35:31 05:37 10.66 ir
15/11/18 Lucavsala imy 7.00 34:00 04:51 12.35 ir
15/11/18 ar ratiem stadionā ap 90 apļiem eees 15.50 1:20:21 152 05:11 11.57 ir
15/11/18 Rita rosme azhons 1.60 08:30 05:18 11.29 ir
15/11/18 Pulsa treniņš. didzzzons 11.83 57:17 04:50 12.39
15/11/18 Run DLK 5.15 28:25 05:31 10.87 ir
15/11/18 ielas Kampars 2.50 13:28 05:23 11.14
15/11/18 Skrējiens Ewiaa 7.79 41:39 05:20 11.22 ir
15/11/18 treadmill 10% runnerchick 4.00 24:15 153 06:03 9.90 ir
15/11/18 airport road runnerchick 12.00 1:10:34 124 05:52 10.20 ir
15/11/18 run Argons 10.25 48:04 04:41 12.79 ir
15/11/18 Pa pludmali spruuds 10.00 52:21 05:14 11.46 ir
15/11/18 skrienu +4 Kris-tin 5.04 44:07 142 08:45 6.85 ir
15/11/18 tr briediitc 5.11 43:45 134 08:33 7.01 ir
15/11/18 Ceturtdienis ar drill _Edgars_ 10.35 1:07:04 06:28 9.26 ir
15/11/18 Ceturtdienis Rainy777 5.00 ir
15/11/18 319. vitaminka D 21.13 1:35:35 149 04:31 13.26 ir
15/11/18 Skrējiens MārcisB 8.00 48:00 06:00 10.00 ir
15/11/18 Lempīgais Asnāts Jay-P 3.05 19:00 128 06:13 9.63 ir
15/11/18 Iesildīšanās EdgarsBR 3.34 18:04 05:24 11.09 ir
15/11/18 Rīta skrējiens Krī 6.32 38:02 06:01 9.97 ir
15/11/18 Raksturs! Huch 14.13 1:11:11 05:02 11.91 ir
15/11/18 Louzan Trail v0.22 (Hell's Gate) Džokers 10.00 45:30 04:33 13.19 ir
15/11/18 The Sun Machine is Coming Down strazdiņš 5.57 39:00 07:00 8.57 ir
15/11/18 20' + drill + 5x100 + 5 km @ 4:20' + 10' rubernmardom 12.10 57:20 137 04:44 12.66 ir
15/11/18 ... Geo 10.00 52:56 149 05:17 11.34 ir
15/11/18 pa pilsētu Kiverene 8.80
15/11/18 Loti agrs VilnisV 4.03 29:25 128 07:17 8.22 ir
15/11/18 Skrējceliņš Andrejs V. 5.04 25:49 140 05:07 11.71 ir
15/11/18 Ķeksis Ugisdatavs 12.20 1:01:00 05:00 12.00 ir
15/11/18 vakars rajona priedēs Lauma 8.26 51:39 138 06:15 9.60 ir
15/11/18 Pusdienas laiks Florence englishteacher 11.50 1:00:52 05:17 11.34 ir
15/11/18 Skrējiens pa Stropu aktīvo trasi ar vīriņu 1 aplītis Alice 2.64 17:48 06:44 8.90 ir
15/11/18 #227.5.4. JurBer 5.92 40:02 136 06:45 8.87 ir
15/11/18 V Trakais 8.06 36:25 04:31 13.28 ir
15/11/18 Vakara skrējiens JanisSkrien 13.00 1:21:17 142 06:15 9.60 ir
15/11/18 Pulsa Freelancer 10.90 58:59 136 05:24 11.09 ir
15/11/18 Noskriesimziemu12 Aikeris 5.67 44:57 135 07:55 7.57 ir
15/11/18 . ush 5.01 22:09 148 04:25 13.57 ir
15/11/18 Skrējiens coffee 8.01 50:32 06:18 9.51 ir
15/11/18 no darba Rasels 11.70 1:04:25 130 05:30 10.90 ir
15/11/18 Skrējiens raraitis 13.01 1:04:29 04:57 12.11 ir
15/11/18 Skrējiens Andrejs V. 10.27 50:10 04:53 12.28 ir
15/11/18 Skrējiens Valters 12.31 1:10:46 05:44 10.44 ir
15/11/18 Skrējiens GeT_RiGhT 6.76 40:00 05:55 10.14
15/11/18 Skrējiens SandisC 10.00 55:06 05:30 10.89 ir
15/11/18 Skrējiens anikka 8.35 55:59 06:42 8.95 ir
15/11/18 Skrējiens vaicis 10.34 1:03:41 06:09 9.74
15/11/18 Skrējiens xorix 16.16 1:27:27 05:24 11.09 ir
15/11/18 LRM 4.2. (014) MBirums 8.85 47:43 146 05:23 11.13 ir
15/11/18 Skrējiens MārcisB 7.00 42:00 06:00 10.00 ir
15/11/18 Skrējiens Lubyz 18.83 1:48:08 05:44 10.45 ir
15/11/18 Māras dīķis īsais gasha 3.80 22:30 05:55 10.13 ir
15/11/18 Mājup pēc 13.5 h darba dienas... Raibacainais Ezītis 11.01 1:01:15 05:33 10.79 ir
15/11/18 Skrējiens Janxxx 4.17 30:01 07:11 8.34 ir
15/11/18 Skrējiens ZZ88 18.46 1:48:08 05:51 10.24 ir
15/11/18 Skrējiens Natthe 12.00 1:13:17 132 06:06 9.82 ir
15/11/18 Skrējiens Hudie 5.40 30:30 05:38 10.62 ir
15/11/18 Skrejiens Prestons 2.65 18:02 124 06:48 8.82 ir
15/11/18 Dublis divi tiltam anciite 5.52 34:11 06:11 9.69 ir
15/11/18 Jelgavas 4.vidusskolas un ZOC tuvumā Pičuks Dz 4.70 33:13 128 07:04 8.49
15/11/18 Ceturtdienas stadiona treniņš noris 18.03 1:21:18 04:30 13.31 ir
15/11/18 Krustpils GU 7.20 38:14 05:18 11.30 ir
15/11/18 Skrējiens 15/11/2018 Spaidijs (Spidey) 15.62 1:45:22 151 06:44 8.89 ir
15/11/18 Lēns skrējiens pēc workout Jolis 30.01 2:44:50 05:29 10.92
15/11/18 Izvedu pārbaudīt Hokas Lielkuilis 17.51 1:40:26 05:44 10.46 ir
15/11/18 Cik var baidīties un krist Briedītis 10.29 1:00:07 05:50 10.27
15/11/18 Vakara +7 D3 patīkami bez vēja Aldis B 12.73 1:18:17 148 06:08 9.76 ir
15/11/18 Skrējiens mtiger 11.00 54:46 144 04:58 12.05 ir
15/11/18 Galvas pavēdināšana Cassandra 4.60 25:51 05:37 10.68 ir
15/11/18 S19.12 Alvis D 14.00 1:05:24 04:40 12.84 ir
15/11/18 Paskrien GintsB 21.11 2:06:11 118 05:58 10.04 ir
15/11/18 skrējiens ģeda 8.40 51:19 158 06:06 9.82 ir
15/11/18 Nedaudz vakarā Ginchaa 8.15 50:15 113 06:09 9.73
15/11/18 gliemežskrējiens neirula 8.58 1:11:10 138 08:17 7.23 ir
15/11/18 Skrējiens Wictoria 9.15 49:40 05:25 11.05 ir
15/11/18 Iesildīšanās... skrejceliņš Špicka 2.35 14:57 06:21 9.43 ir
15/11/18 Brasas tilts alushox 13.68 1:14:56 146 05:28 10.95 ir
15/11/18 Līdz Kr.Valdemāra ielai (+7°C; D 1 m/s) atisx 10.00 59:32 162 05:57 10.08 ir
15/11/18 Ļoti smaga labā kāja, 10km nenormāli mocījos un gribējās apstāties, bet cietos dikti James87 15.00 1:11:57 140 04:47 12.51 ir
15/11/18 Vakars uldis15 18.20 1:29:57 04:56 12.14 ir
15/11/18 vakara mierīgais stjopachio 9.00 46:31 126 05:10 11.61 ir
15/11/18 Viada zirnis 6.44 37:09 05:46 10.40 ir
15/11/18 Forśs koptreniņš Ilze1409 10.00
15/11/18 Vakars ar Kasparu OreMan 11.50 1:00:18 05:14 11.44 ir
15/11/18 shadowqueen 10.01 1:46:37 138 10:39 5.63 ir
15/11/18 Croozer ar mazbēbi un dēlu nois 9.22 1:01:22 06:39 9.01 ir
15/11/18 95. Brainārs 10.65 1:00:22 140 05:40 10.59 ir
15/11/18 Asfalts Dzo 21.60 1:39:18 04:35 13.05 ir
15/11/18 Skrējiens borga 14.00 1:09:40 163 04:58 12.06 ir
15/11/18 No darba ilZZuks 13.00 1:16:53 05:54 10.15
15/11/18 Lēnām. Uldzha 4.16 33:05 07:57 7.54 ir
15/11/18 pēcdarba galvas izvēdināšana Dina 10.41 1:06:20 155 06:22 9.42 ir
15/11/18 9.23 und 9.23 29:11 140 03:09 18.98 ir
15/11/18 vakariņš Inta Amoliņa 5.66 36:47 06:29 9.23 ir
15/11/18 īsais no paša rīta a-anna 3.01 16:32 05:29 10.92 ir
15/11/18 Treniņš Zviedriete 4.82 36:22 07:32 7.95
15/11/18 tipu tapu GintsK 8.45 50:06 05:55 10.12 ir
15/11/18 Paspēju gaismā IlzeP 5.80 38:05 06:33 9.14 ir
15/11/18 Treniņš andis.deze 7.17 31:22 165 04:22 13.72 ir
15/11/18 Infinity Fitness Day 5 guncha 6.00 35:00 05:50 10.29 ir
15/11/18 Damn!  Antramons 4.30 27:34 06:24 9.36 ir
15/11/18 Smiltsērkšķi Zaķusalā. Hiēna 16.13 1:40:27 06:13 9.63 ir
15/11/18 Treniņš Dainis 16.13 1:41:46 06:18 9.51 ir
15/11/18 Lēni, +7.7C sola.scriptura 3.09 29:34 127 09:34 6.27 ir
15/11/18 94.7 m2 Ønske 4.95 36:00 07:16 8.25 ir
15/11/18 Pa Salaspili Aivars 7.66 58:00 98 07:34 7.92 ir
15/11/18 Istria 100 - 11 katarakt 10.00 58:05 05:48 10.33 ir
15/11/18 Ar ratiem+ dēls ar skrejriteni blakus nois 4.89 32:14 06:35 9.10 ir
15/11/18 Pusdienlaikā ar paātrinājumiem DK86 8.00 40:25 144 05:03 11.88 ir
15/11/18 ceturdieniņš normundiņš 6.10 35:51 146 05:52 10.21 ir
15/11/18 Bajāri jurcha 8.02 49:13 122 06:08 9.78
15/11/18 Skrējiens garaissss 10.45 56:11 146 05:22 11.16 ir
15/11/18 Skrējiens. VOMax 47 bunbinja 5.64 36:09 133 06:24 9.36 ir
15/11/18 Mazais aplis ildze 4.00 32:00 08:00 7.50 ir
15/11/18 Takas M.Po 10.02 57:28 132 05:44 10.46 ir
15/11/18 Starp mākoņiem vīd saule/6.3 purene_vulgaris (parasta) 6.15 42:29 06:54 8.69 ir
15/11/18 Skrējiens Lapmežciems KVerdens 6.30 39:44 149 06:18 9.51 ir
15/11/18 ŠB. skrējiens pirms strečinga kaķis 3.73 22:31 142 06:02 9.94 ir
15/11/18 Skrējiens zandarts 7.13 47:17 128 06:37 9.05 ir
15/11/18 Rīta skrējiens JanisSkrien 12.00 1:04:54 153 05:24 11.09 ir
15/11/18 Skrējiens Ila_Kantī 1.63 10:07 06:12 9.67
15/11/18 Rīta skrējiens nr.18, 6 a.m. Ginchaa 11.10 1:10:32 116 06:21 9.44
15/11/18 Skrējiens lerychv 5.53 29:41 121 05:22 11.18 ir
15/11/18 Rīta pikols 10.30 1:07:35 06:33 9.14 ir
15/11/18 Atjaunošanās pēc dejām Ainars 11.00 48:00 04:21 13.75 ir
15/11/18 +7 C Tempo 4x{10+2) InTi68 12.13 1:08:22 145 05:38 10.65 ir
15/11/18 veļu laiks Sanča_Ro 5.90 41:49 135 07:05 8.47 ir
15/11/18 Te ir darbs! Raibacainais Ezītis 11.82 1:04:20 05:26 11.02 ir
15/11/18 Kur saules brāļi mājo. Didzo 11.75 1:10:31 06:00 10.00 ir
15/11/18 Uz darbu und 5.20 30:57 140 05:57 10.08 ir
15/11/18 Skrējiens Chuncha 12.00 1:06:46 05:33 10.78
15/11/18 Rītiņš Janka A 3.00 17:00 05:40 10.59 ir
15/11/18 Rīta riksis uldis15 9.10 49:19 05:25 11.07 ir
15/11/18 Ildienas rīts ievajansone 4.03 28:20 135 07:01 8.53 ir